When you browse on this site, cookies collect data to enhance your experience and personalize the content and advertising you see.
Visit our Privacy Policy to learn more. By continuing to use the site, you agree to this use of cookies and data.
  • In Hungary
  • List of Countries
  • For 7 days
  • Water Temperature
  • Weather Map
  • News
  • Weather Widgets
  • user-avatar
    Login

    Hourly Weather Sayram

    Today, 15 December, Sunday

    Time Temperature Precipitation Wind Pressure Humidity
    00:00 -2°C° 0 mm 1 mps 712 mmHg 76%
    01:00 -2°C° 0 mm 1 mps 712 mmHg 74%
    02:00 -3°C° 0 mm 0 mps 712 mmHg 72%
    03:00 -2°C° 0 mm 1 mps 712 mmHg 71%
    04:00 -2°C° 0 mm 1 mps 712 mmHg 70%
    05:00 -4°C° 0 mm 1 mps 712 mmHg 71%
    06:00 -4°C° 0 mm 1 mps 712 mmHg 70%
    07:00 -4°C° 0 mm 1 mps 712 mmHg 69%
    08:00 -4°C° 0 mm 1 mps 712 mmHg 67%
    09:00 -2°C° 0 mm 1 mps 712 mmHg 63%
    10:00 -1°C° 0 mm 1 mps 712 mmHg 59%
    11:00 +1°C° 0 mm 1 mps 713 mmHg 55%
    12:00 +1°C° 0 mm 1 mps 712 mmHg 56%
    13:00 +2°C° 0 mm 1 mps 712 mmHg 56%
    14:00 +2°C° 0 mm 1 mps 712 mmHg 57%
    15:00 +1°C° 0 mm 1 mps 712 mmHg 61%
    16:00 0°C° 0 mm 1 mps 712 mmHg 65%
    17:00 -3°C° 0 mm 2 mps 712 mmHg 69%
    18:00 -4°C° 0 mm 2 mps 712 mmHg 67%
    19:00 -4°C° 0 mm 2 mps 712 mmHg 65%
    20:00 -4°C° 0 mm 2 mps 712 mmHg 63%
    21:00 -4°C° 0 mm 2 mps 712 mmHg 60%
    22:00 -4°C° 0 mm 2 mps 712 mmHg 56%
    23:00 -4°C° 0 mm 2 mps 712 mmHg 53%

    Tomorrow, 16 December, Monday

    Time Temperature Precipitation Wind Pressure Humidity
    00:00 -4°C° 0 mm 2 mps 712 mmHg 51%
    01:00 -4°C° 0 mm 2 mps 711 mmHg 49%
    02:00 -4°C° 0 mm 2 mps 711 mmHg 46%
    03:00 -4°C° 0 mm 2 mps 711 mmHg 45%
    04:00 -4°C° 0 mm 2 mps 711 mmHg 44%
    05:00 -4°C° 0 mm 2 mps 711 mmHg 42%
    06:00 -4°C° 0 mm 2 mps 711 mmHg 41%
    07:00 -4°C° 0 mm 2 mps 711 mmHg 41%
    08:00 -3°C° 0 mm 2 mps 711 mmHg 40%
    09:00 -2°C° 0 mm 2 mps 711 mmHg 40%
    10:00 +2°C° 0 mm 1 mps 712 mmHg 40%
    11:00 +4°C° 0 mm 1 mps 712 mmHg 40%
    12:00 +5°C° 0 mm 1 mps 712 mmHg 40%
    13:00 +5°C° 0 mm 1 mps 711 mmHg 41%
    14:00 +6°C° 0 mm 1 mps 711 mmHg 41%
    15:00 +4°C° 0 mm 1 mps 711 mmHg 43%
    16:00 +2°C° 0 mm 1 mps 710 mmHg 45%
    17:00 +1°C° 0 mm 1 mps 710 mmHg 48%
    18:00 +1°C° 0 mm 1 mps 710 mmHg 46%
    19:00 -2°C° 0 mm 2 mps 710 mmHg 44%
    20:00 -2°C° 0 mm 2 mps 710 mmHg 42%
    21:00 -2°C° 0 mm 2 mps 710 mmHg 40%
    22:00 -2°C° 0 mm 2 mps 710 mmHg 38%
    23:00 -1°C° 0 mm 2 mps 710 mmHg 36%

    Day after tomorrow, 17 December, Tuesday

    Time Temperature Precipitation Wind Pressure Humidity
    00:00 -1°C° 0 mm 2 mps 710 mmHg 35%
    01:00 -1°C° 0 mm 2 mps 710 mmHg 34%
    02:00 -1°C° 0 mm 2 mps 710 mmHg 33%
    03:00 -1°C° 0 mm 2 mps 710 mmHg 32%
    04:00 -1°C° 0 mm 2 mps 710 mmHg 32%
    05:00 -1°C° 0 mm 2 mps 710 mmHg 32%
    06:00 -1°C° 0 mm 2 mps 710 mmHg 32%
    07:00 +1°C° 0 mm 2 mps 710 mmHg 32%
    08:00 +1°C° 0 mm 2 mps 710 mmHg 33%
    09:00 +3°C° 0 mm 2 mps 710 mmHg 34%
    10:00 +6°C° 0 mm 1 mps 711 mmHg 35%
    11:00 +7°C° 0 mm 1 mps 711 mmHg 36%
    12:00 +8°C° 0 mm 1 mps 711 mmHg 38%
    13:00 +8°C° 0 mm 0 mps 710 mmHg 39%
    14:00 +8°C° 0 mm 0 mps 710 mmHg 41%
    15:00 +8°C° 0 mm 1 mps 710 mmHg 42%
    16:00 +6°C° 0 mm 1 mps 709 mmHg 43%
    17:00 +4°C° 0 mm 2 mps 709 mmHg 44%
    18:00 +4°C° 0 mm 2 mps 709 mmHg 45%
    19:00 +4°C° 0 mm 2 mps 709 mmHg 47%
    20:00 +3°C° 0 mm 2 mps 709 mmHg 49%
    21:00 +3°C° 0 mm 2 mps 708 mmHg 50%
    22:00 +4°C° 0 mm 2 mps 708 mmHg 51%
    23:00 +4°C° 0 mm 2 mps 708 mmHg 53%

    18 December, Wednesday

    Time Temperature Precipitation Wind Pressure Humidity
    00:00 +4°C° 0 mm 2 mps 708 mmHg 53%
    01:00 +4°C° 0 mm 2 mps 708 mmHg 54%
    02:00 +4°C° 0 mm 2 mps 707 mmHg 54%
    03:00 +4°C° 0 mm 2 mps 707 mmHg 55%
    04:00 +4°C° 0 mm 2 mps 707 mmHg 56%
    05:00 +4°C° 0 mm 2 mps 707 mmHg 57%
    06:00 +5°C° 0 mm 1 mps 707 mmHg 59%
    07:00 +5°C° 0 mm 1 mps 707 mmHg 62%
    08:00 +5°C° 0 mm 1 mps 707 mmHg 65%
    09:00 +5°C° 0 mm 2 mps 708 mmHg 65%
    10:00 +5°C° 0 mm 3 mps 708 mmHg 65%
    11:00 +6°C° 0 mm 4 mps 709 mmHg 66%
    12:00 +6°C° 0.1 mm 5 mps 709 mmHg 67%
    13:00 +4°C° 0.1 mm 6 mps 709 mmHg 68%
    14:00 +4°C° 0.1 mm 6 mps 709 mmHg 69%
    15:00 +3°C° 0.4 mm 6 mps 709 mmHg 74%
    16:00 +2°C° 0.4 mm 5 mps 709 mmHg 80%
    17:00 +1°C° 0.4 mm 5 mps 710 mmHg 86%
    18:00 +1°C° 0 mm 4 mps 710 mmHg 86%
    19:00 +1°C° 0 mm 4 mps 711 mmHg 86%
    20:00 0°C° 0 mm 4 mps 711 mmHg 86%
    21:00 +1°C° 0 mm 3 mps 711 mmHg 85%
    22:00 +1°C° 0 mm 3 mps 712 mmHg 84%
    23:00 0°C° 0 mm 3 mps 712 mmHg 83%

    19 December, Thursday

    Time Temperature Precipitation Wind Pressure Humidity
    00:00 +1°C° 0 mm 2 mps 712 mmHg 82%
    01:00 +1°C° 0 mm 2 mps 712 mmHg 81%
    02:00 +1°C° 0 mm 2 mps 711 mmHg 80%
    03:00 +2°C° 0 mm 1 mps 711 mmHg 79%
    04:00 +2°C° 0 mm 1 mps 711 mmHg 79%
    05:00 +2°C° 0 mm 1 mps 711 mmHg 78%
    06:00 +2°C° 0 mm 1 mps 711 mmHg 76%
    07:00 +2°C° 0 mm 1 mps 711 mmHg 75%
    08:00 +2°C° 0 mm 1 mps 710 mmHg 73%
    09:00 +2°C° 0 mm 2 mps 710 mmHg 69%
    10:00 +3°C° 0 mm 3 mps 710 mmHg 66%
    11:00 +4°C° 0 mm 3 mps 710 mmHg 62%
    12:00 +4°C° 0 mm 4 mps 709 mmHg 64%
    13:00 +5°C° 0 mm 5 mps 709 mmHg 65%
    14:00 +5°C° 0 mm 6 mps 709 mmHg 67%
    15:00 +4°C° 0 mm 6 mps 708 mmHg 71%
    16:00 +3°C° 0 mm 5 mps 708 mmHg 74%
    17:00 +3°C° 0 mm 4 mps 708 mmHg 78%
    18:00 +3°C° 0 mm 4 mps 708 mmHg 78%
    19:00 +2°C° 0 mm 5 mps 708 mmHg 77%
    20:00 +2°C° 0 mm 5 mps 708 mmHg 77%
    21:00 +2°C° 0.1 mm 5 mps 708 mmHg 79%
    22:00 +1°C° 0.1 mm 5 mps 708 mmHg 80%
    23:00 +1°C° 0.1 mm 5 mps 707 mmHg 81%

    20 December, Friday

    Time Temperature Precipitation Wind Pressure Humidity
    00:00 +1°C° 0.3 mm 5 mps 707 mmHg 84%
    01:00 0°C° 0.3 mm 5 mps 707 mmHg 87%
    02:00 -1°C° 0.3 mm 5 mps 707 mmHg 89%
    03:00 -1°C° 0.7 mm 5 mps 707 mmHg 92%
    04:00 -1°C° 0.7 mm 5 mps 708 mmHg 94%
    05:00 -1°C° 0.7 mm 5 mps 708 mmHg 96%
    06:00 -1°C° 0.6 mm 5 mps 708 mmHg 96%
    07:00 -1°C° 0.6 mm 5 mps 709 mmHg 96%
    08:00 -1°C° 0.6 mm 4 mps 709 mmHg 96%
    09:00 -1°C° 0.2 mm 4 mps 710 mmHg 95%
    10:00 0°C° 0.2 mm 4 mps 710 mmHg 94%
    11:00 0°C° 0.2 mm 4 mps 711 mmHg 93%
    12:00 +1°C° 0 mm 4 mps 710 mmHg 89%
    13:00 +2°C° 0 mm 3 mps 710 mmHg 85%
    14:00 +3°C° 0 mm 3 mps 710 mmHg 81%
    15:00 +2°C° 0 mm 3 mps 710 mmHg 82%
    16:00 +3°C° 0 mm 2 mps 710 mmHg 83%
    17:00 +3°C° 0 mm 1 mps 710 mmHg 85%
    18:00 +3°C° 0 mm 1 mps 710 mmHg 83%
    19:00 +3°C° 0 mm 1 mps 710 mmHg 81%
    20:00 +2°C° 0 mm 1 mps 710 mmHg 79%
    21:00 +1°C° 0 mm 2 mps 710 mmHg 76%
    22:00 +1°C° 0 mm 2 mps 710 mmHg 73%
    23:00 +1°C° 0 mm 2 mps 710 mmHg 69%
    Show more